Regional Weather Roundup
Issued by NWS

Home | Current Version | Previous Version | Graphics & Text | Print | Product List | Glossary On
Versions: 1 2 3 4 5 6 7 8 9 10 11 12 13 14 15 16 17 18 19 20 21 22 23 24 25 26 27 28 29 30 31 32 33 34 35 36 37 38 39 40 41 42 43 44 45 46 47 48 49 50
000
ASUS43 KMPX 040810
RWRMN
WEATHER ROUNDUP FOR MINNESOTA
NATIONAL WEATHER SERVICE TWIN CITIES/CHANHASSEN MN
300 AM CDT MON MAY 04 2015


NOTE: "FAIR" INDICATES FEW OR NO CLOUDS BELOW 12,000 FEET WITH NO
SIGNIFICANT WEATHER AND/OR OBSTRUCTIONS TO VISIBILITY. N/A MEANS
CURRENT SKY AND/OR WEATHER CONDITIONS ARE NOT AVAILABLE.

MNZ060>063-068>070-040900-
   Twin Cities Metro

CITY           SKY/WX    TMP DP  RH WIND       PRES   REMARKS
TWIN CITIES    MOCLDY    55  43  63 NW6       29.99R
ST PAUL        CLEAR     53  44  71 N8        29.99R
CRYSTAL        CLEAR     53  39  59 NW6       29.99R
BLAINE         CLEAR     52  43  71 N6        30.00R
LAKEVILLE      CLEAR     50  45  81 NW6       29.98S
EDEN PRAIRIE   CLEAR     55  39  54 N7        29.98R
SOUTH ST PAUL  CLEAR     55  44  64 N3        29.98S
LAKE ELMO      FAIR      52  45  76 N5        29.99S
$$
MNZ001>005-007-008-013>017-022>024-027-028-040900-
   Northwest Minnesota

CITY           SKY/WX    TMP DP  RH WIND       PRES   REMARKS
BEMIDJI        CLEAR     32  29  90 NW5       30.07R WCI  28
HALLOCK        CLEAR     39  28  65 CALM      30.11R
ROSEAU         CLEAR     36  30  80 CALM      30.10R
WARROAD        CLEAR     37  34  87 CALM      30.10R
THIEF RVR FALL CLEAR     45  34  65 NE7       30.11R
CROOKSTON      CLEAR     39  28  65 N3        30.11R
DETROIT LAKES  CLEAR     46  34  61 NW3       30.08R
MOORHEAD       CLEAR     39  25  56 N5        30.09R
PARK RAPIDS    CLEAR     40  30  67 NW3       30.07R
MAHNOMEN       FAIR      38  26  63 CALM      30.08R
$$
MNZ006-009>011-018-025>026-040900-
   North Central Minnesota

CITY           SKY/WX    TMP DP  RH WIND       PRES   REMARKS
BAUDETTE       CLEAR     37  34  89 W6        30.08R
FLAG ISLAND    CLEAR     43  39  87 W5        30.07R
INTL FALLS     CLEAR     31  28  89 CALM      30.05R
WASKISH        CLEAR     34  32  93 CALM      30.08R
BIG FORK       CLEAR     34  30  86 CALM      30.06R
LONGVILLE      CLEAR     37  34  87 CALM      30.07R
GRAND RAPIDS   CLEAR     41  30  65 CALM      30.06R
CRANE LAKE     CLEAR     30  28  93 CALM      30.06R
ORR            CLEAR     39  36  87 CALM      30.03R
COOK           CLEAR     34  32  93 CALM      30.05S
WALKER         FAIR      37  31  79 CALM      30.07R
$$
MNZ012-019>021-037-040900-
   Northeast Minnesota

CITY           SKY/WX    TMP DP  RH WIND       PRES   REMARKS
DULUTH         CLEAR     49  33  54 NW8       30.01R
ELY            CLEAR     43  36  75 CALM      30.03R
HIBBING        CLEAR     42  32  67 N8        30.04R
EVELETH        CLEAR     46  34  61 CALM      30.04R
DULUTH HARBOR  CLEAR     54  36  50 CALM      30.01R
TWO HARBORS    CLEAR     54  37  54 NW7G16    29.98R
SILVER BAY     CLEAR     50  34  53 NW9G17    29.97R
GRAND MARAIS     N/A     51  37  58 N9G18     29.94R
G MARAIS ARPRT CLEAR     43  34  70 NW14G22   29.96R
$$
MNZ029>031-032-039>041-046>048-054>057-064-040900-
   West Central Minnesota

CITY           SKY/WX    TMP DP  RH WIND       PRES   REMARKS
FERGUS FALLS   CLEAR     46  28  49 N3        30.09R
WHEATON        CLEAR     43  27  52 NW3       30.10R
MORRIS         CLEAR     43  27  52 NW8       30.06R
ALEXANDRIA     CLEAR     48  34  58 N6        30.08R
ELBOW LAKE     FAIR      46  32  57 NE3       30.07R
WADENA         CLEAR     43  30  61 CALM      30.07R
GLENWOOD       CLEAR     46  30  53 N9        30.06R
APPLETON       CLEAR     46  27  46 N9        30.06S
BENSON         CLEAR     41  28  60 NE3       30.06R
ORTONVILLE     CLEAR     45  28  53 NW5       30.07S
MADISON        CLEAR     45  28  53 NW7       30.06F
WILLMAR        FAIR      43  34  70 N7        30.06R
$$
MNZ033>034-036-042>043-049>051-058-059-040900-
   Central Minnesota

CITY           SKY/WX    TMP DP  RH WIND       PRES   REMARKS
ST CLOUD       CLEAR     48  32  53 N7        30.03R
SAUK CENTRE    FAIR      46  33  59 N5        30.06R
PAYNESVILLE    CLEAR     46  30  55 NW6       30.05R
AITKIN         CLEAR     36  30  80 CALM      30.04R
PINE RIVER     CLEAR     37  30  75 CALM      30.10R
BRAINERD       CLEAR     42  36  79 N3        30.06R
STAPLES        CLEAR     43  30  61 CALM      30.06S
LONG PRAIRIE   FAIR      45  32  61 N5        30.07R
LITTLE FALLS   CLEAR     41  32  70 CALM      30.05R
LITCHFIELD     CLEAR     50  34  53 NE3       30.03S
BUFFALO        CLEAR     51  39  62 NW7       30.02S
MAPLE LAKE     CLEAR     49  38  66 NW7       30.03S
$$
MNZ037-044-045-052-053-040900-
   East Central Minnesota

CITY           SKY/WX    TMP DP  RH WIND       PRES   REMARKS
PRINCETON      CLEAR     52  34  50 N9        30.03R
MORA           CLEAR     48  32  53 N3        30.05R
CAMBRIDGE      CLEAR     54  36  50 N6        30.01R
RUSH CITY      PTCLDY    48  34  57 N5        30.02R
MOOSE LAKE     CLEAR     46  32  57 N6        30.01S
HINCKLEY       FAIR      48  32  53 N6        30.03R
CLOQUET        CLEAR     46  30  53 NW9       30.02R
MCGREGOR       CLEAR     41  32  70 N6        30.05R
$$
MNZ071>073-080-081-089-090-097-098-040900-
   Southwest Minnesota

CITY           SKY/WX    TMP DP  RH WIND       PRES   REMARKS
MONTEVIDEO     CLEAR     46  28  49 N6        30.06S
GRANITE FALLS  CLEAR     46  29  52 NW8       30.06S
CANBY          CLEAR     43  29  56 NW9       30.07S
MARSHALL       CLEAR     45  25  45 NW10      30.05R
REDWOOD FALLS  CLEAR     53  30  41 NW7       30.02S
OLIVIA         CLEAR     45  30  57 NW10      30.02S
PIPESTONE      CLEAR     50  28  43 N5        30.05R
WINDOM         PTCLDY    54  28  37 N13       30.02R
WORTHINGTON    PTCLDY    54  27  35 N13       30.03S
JACKSON        PTCLDY    54  30  40 N7        30.01R
TRACY          CLEAR     52  29  42 NW9       30.05R
SLAYTON        CLEAR     50  28  43 CALM      30.05S
$$
MNZ065>067-074>077-082>085-091>093-040900-
   South Central Minnesota

CITY           SKY/WX    TMP DP  RH WIND       PRES   REMARKS
MANKATO          N/A    N/A N/A N/A MISG        N/A
NEW ULM        PTCLDY    52  32  46 N6        30.01R
ST JAMES       PTCLDY    54  32  43 NW8       30.02R
FAIRMONT       MOCLDY    55  36  47 N13       29.98R
GLENCOE        CLEAR     52  38  57 N3        30.00S
FARIBAULT      PTCLDY    54  46  76 NW5       29.98R
OWATONNA       PTCLDY    54  46  76 N6        29.97R
WASECA         PTCLDY    54  45  71 N10       29.98R
ALBERT LEA     MOCLDY    55  50  82 N8        29.95S
$$
MNZ078>079-086>088-094>096-040900-
   Southeast Minnesota

CITY           SKY/WX    TMP DP  RH WIND       PRES   REMARKS
ROCHESTER      CLOUDY    56  53  90 N9        29.97R
RED WING       PTCLDY    55  46  71 N5        29.95F
STANTON        PTCLDY    51  46  84 N5        29.96S
DODGE CENTER   PTCLDY    54  50  87 N3        29.96R
WINONA         CLOUDY    59  57  94 NW7       29.94R
AUSTIN         CLOUDY    55  52  88 N7        29.95R
PRESTON        CLOUDY    55  55  97 N10       29.95R FOG
$$
ABBREVIATIONS USED IN REMARKS
   TC - TEMPERATURES IN CELSIUS
  WCI - WIND CHILL INDEX
   HX - HEAT INDEX
  VSB - VISIBILITY
$$


USA.gov is the U.S. government's official web portal to all federal, state and local government web resources and services.